TimeCDT,TemperatureF,Dew PointF,Humidity,Sea Level PressureIn,VisibilityMPH,Wind Direction,Wind SpeedMPH,Gust SpeedMPH,PrecipitationIn,Events,Conditions,WindDirDegrees,DateUTC
12:15 AM,50.0,48.2,94,30.02,9.0,Calm,Calm,-,N/A,,Clear,0,2012-11-03 05:15:00
12:35 AM,50.0,48.2,94,30.02,10.0,Calm,Calm,-,N/A,,Clear,0,2012-11-03 05:35:00
12:55 AM,50.0,48.2,94,30.02,9.0,Calm,Calm,-,N/A,,Clear,0,2012-11-03 05:55:00
1:15 AM,50.0,48.2,94,30.02,9.0,Calm,Calm,-,N/A,,Clear,0,2012-11-03 06:15:00
1:35 AM,50.0,48.2,94,30.02,8.0,Calm,Calm,-,N/A,,Clear,0,2012-11-03 06:35:00
1:55 AM,50.0,48.2,94,30.02,9.0,Calm,Calm,-,N/A,,Clear,0,2012-11-03 06:55:00
2:15 AM,50.0,48.2,94,30.02,9.0,Calm,Calm,-,N/A,,Clear,0,2012-11-03 07:15:00
2:35 AM,50.0,48.2,94,30.02,8.0,Calm,Calm,-,N/A,,Clear,0,2012-11-03 07:35:00
2:55 AM,50.0,48.2,94,30.02,8.0,Calm,Calm,-,N/A,,Clear,0,2012-11-03 07:55:00
3:15 AM,50.0,48.2,94,30.01,8.0,Calm,Calm,-,N/A,,Clear,0,2012-11-03 08:15:00
3:35 AM,50.0,48.2,94,30.01,7.0,Calm,Calm,-,N/A,,Clear,0,2012-11-03 08:35:00
3:55 AM,50.0,48.2,94,30.01,7.0,Calm,Calm,-,N/A,,Clear,0,2012-11-03 08:55:00
4:15 AM,50.0,48.2,94,30.02,7.0,Calm,Calm,-,N/A,,Clear,0,2012-11-03 09:15:00
4:35 AM,50.0,48.2,94,30.02,7.0,Calm,Calm,-,N/A,,Clear,0,2012-11-03 09:35:00
5:15 AM,50.0,48.2,94,30.04,6.0,Calm,Calm,-,N/A,,Clear,0,2012-11-03 10:15:00
5:35 AM,50.0,48.2,94,30.04,5.0,Calm,Calm,-,N/A,,Clear,0,2012-11-03 10:35:00
5:55 AM,48.2,48.2,100,30.05,5.0,Calm,Calm,-,N/A,,Clear,0,2012-11-03 10:55:00
6:15 AM,48.2,48.2,100,30.05,5.0,Calm,Calm,-,N/A,,Clear,0,2012-11-03 11:15:00
6:55 AM,48.2,48.2,100,30.06,5.0,Calm,Calm,-,N/A,,Clear,0,2012-11-03 11:55:00
7:15 AM,48.2,46.4,93,30.07,5.0,Calm,Calm,-,N/A,,Clear,0,2012-11-03 12:15:00
7:35 AM,48.2,48.2,100,30.07,5.0,Calm,Calm,-,N/A,,Clear,0,2012-11-03 12:35:00
7:55 AM,50.0,50.0,100,30.08,5.0,Calm,Calm,-,N/A,,Clear,0,2012-11-03 12:55:00
8:15 AM,55.4,55.4,100,30.08,6.0,WSW,3.5,-,N/A,,Clear,240,2012-11-03 13:15:00
8:35 AM,57.2,55.4,94,30.09,8.0,WSW,3.5,-,N/A,,Clear,250,2012-11-03 13:35:00
8:55 AM,62.6,57.2,82,30.09,7.0,SW,4.6,-,N/A,,Clear,230,2012-11-03 13:55:00
9:15 AM,64.4,57.2,77,30.09,9.0,West,5.8,-,N/A,,Clear,260,2012-11-03 14:15:00
9:35 AM,66.2,57.2,73,30.09,8.0,WSW,6.9,-,N/A,,Clear,250,2012-11-03 14:35:00
9:55 AM,68.0,57.2,68,30.09,9.0,West,8.1,-,N/A,,Clear,280,2012-11-03 14:55:00
10:15 AM,71.6,57.2,60,30.09,9.0,West,11.5,16.1,N/A,,Clear,270,2012-11-03 15:15:00
10:35 AM,71.6,57.2,60,30.09,10.0,West,8.1,18.4,N/A,,Clear,270,2012-11-03 15:35:00
10:55 AM,73.4,57.2,57,30.09,9.0,West,8.1,-,N/A,,Clear,260,2012-11-03 15:55:00
11:15 AM,73.4,57.2,57,30.08,7.0,West,5.8,-,N/A,,Clear,260,2012-11-03 16:15:00
11:35 AM,75.2,57.2,53,30.08,8.0,WSW,9.2,18.4,N/A,,Clear,250,2012-11-03 16:35:00
11:55 AM,77.0,59.0,54,30.07,9.0,SW,9.2,-,N/A,,Clear,230,2012-11-03 16:55:00
12:15 PM,77.0,57.2,50,30.06,9.0,West,12.7,16.1,N/A,,Clear,280,2012-11-03 17:15:00
12:55 PM,77.0,57.2,50,30.05,8.0,West,9.2,17.3,N/A,,Clear,260,2012-11-03 17:55:00
1:15 PM,77.0,57.2,50,30.04,9.0,West,9.2,17.3,N/A,,Clear,280,2012-11-03 18:15:00
1:35 PM,78.8,57.2,47,30.03,9.0,West,11.5,17.3,N/A,,Unknown,260,2012-11-03 18:35:00
1:55 PM,77.0,57.2,50,30.03,9.0,West,11.5,19.6,N/A,,Clear,270,2012-11-03 18:55:00
2:15 PM,77.0,57.2,50,30.02,10.0,WSW,9.2,-,N/A,,Unknown,250,2012-11-03 19:15:00
2:35 PM,77.0,57.2,50,30.01,9.0,West,10.4,17.3,N/A,,Clear,260,2012-11-03 19:35:00
2:55 PM,77.0,57.2,50,30.01,10.0,West,10.4,17.3,N/A,,Partly Cloudy,270,2012-11-03 19:55:00
3:15 PM,78.8,57.2,47,30.00,9.0,WSW,15.0,20.7,N/A,,Scattered Clouds,240,2012-11-03 20:15:00
3:35 PM,78.8,57.2,47,30.00,9.0,WSW,10.4,17.3,N/A,,Scattered Clouds,240,2012-11-03 20:35:00
3:55 PM,78.8,55.4,44,30.00,10.0,WSW,11.5,18.4,N/A,,Partly Cloudy,250,2012-11-03 20:55:00
4:15 PM,78.8,55.4,44,29.99,9.0,WSW,12.7,18.4,N/A,,Clear,240,2012-11-03 21:15:00
4:35 PM,77.0,55.4,47,29.98,10.0,West,11.5,18.4,N/A,,Clear,270,2012-11-03 21:35:00
4:55 PM,77.0,55.4,47,29.98,9.0,WSW,9.2,20.7,N/A,,Clear,240,2012-11-03 21:55:00
5:15 PM,77.0,55.4,47,29.98,9.0,WSW,6.9,17.3,N/A,,Clear,250,2012-11-03 22:15:00
5:35 PM,75.2,57.2,53,29.97,10.0,WSW,6.9,-,N/A,,Clear,240,2012-11-03 22:35:00
5:55 PM,75.2,57.2,53,29.97,10.0,WSW,5.8,-,N/A,,Clear,250,2012-11-03 22:55:00
6:15 PM,73.4,57.2,57,29.97,10.0,WSW,4.6,-,N/A,,Clear,240,2012-11-03 23:15:00
6:35 PM,69.8,57.2,64,29.98,10.0,WSW,3.5,-,N/A,,Clear,240,2012-11-03 23:35:00
6:55 PM,69.8,57.2,64,29.99,10.0,West,3.5,-,N/A,,Clear,280,2012-11-03 23:55:00
7:15 PM,66.2,57.2,73,29.99,10.0,Calm,Calm,-,N/A,,Partly Cloudy,0,2012-11-04 00:15:00
7:35 PM,64.4,57.2,77,30.00,10.0,Calm,Calm,-,N/A,,Partly Cloudy,0,2012-11-04 00:35:00
7:55 PM,64.4,57.2,77,30.01,10.0,Calm,Calm,-,N/A,Thunderstorm,Partly Cloudy,0,2012-11-04 00:55:00
8:15 PM,64.4,57.2,77,30.01,10.0,WSW,4.6,-,N/A,,Clear,240,2012-11-04 01:15:00
8:35 PM,66.2,57.2,73,30.04,9.0,NW,10.4,17.3,N/A,Thunderstorm,Scattered Clouds,310,2012-11-04 01:35:00
8:55 PM,64.4,59.0,83,30.06,2.0,WNW,6.9,17.3,0.08,Rain-Thunderstorm,Thunderstorms and Rain,290,2012-11-04 01:55:00
9:15 PM,62.6,59.0,88,30.09,5.0,West,8.1,-,0.02,Rain-Thunderstorm,Light Rain,270,2012-11-04 02:15:00
9:35 PM,60.8,59.0,94,30.09,6.0,West,8.1,-,0.02,Rain,Light Rain,280,2012-11-04 02:35:00
9:55 PM,60.8,57.2,88,30.09,5.0,NNW,4.6,-,0.03,Rain,Light Rain,340,2012-11-04 02:55:00
10:15 PM,59.0,57.2,94,30.04,3.0,ESE,3.5,-,0.02,Rain-Thunderstorm,Light Rain,120,2012-11-04 03:15:00
10:35 PM,59.0,59.0,100,30.10,7.0,NW,8.1,19.6,0.02,Thunderstorm,Mostly Cloudy,310,2012-11-04 03:35:00
10:55 PM,59.0,57.2,94,30.09,8.0,NW,4.6,-,0.02,Thunderstorm,Partly Cloudy,320,2012-11-04 03:55:00
11:15 PM,59.0,57.2,94,30.10,7.0,NW,4.6,-,N/A,,Partly Cloudy,310,2012-11-04 04:15:00
11:35 PM,59.0,57.2,94,30.09,7.0,NNW,5.8,-,N/A,Rain,Light Rain,340,2012-11-04 04:35:00
11:55 PM,59.0,55.4,88,30.08,8.0,Calm,Calm,-,N/A,Rain,Light Rain,0,2012-11-04 04:55:00